Regional Weather Roundup
Issued by NWS

Home | Current Version | Previous Version | Graphics & Text | Print | Product List | Glossary On
Versions: 1 2 3 4 5 6 7 8 9 10 11 12 13 14 15 16 17 18 19 20 21 22 23 24 25 26 27 28 29 30 31 32 33 34 35 36 37 38 39 40 41 42 43 44 45 46 47 48 49 50
000
ASUS43 KMKX 312000
RWRWI

WISCONSIN REGIONAL WEATHER ROUNDUP
NATIONAL WEATHER SERVICE MILWAUKEE/SULLIVAN WI
300 PM CDT THU JUL 31 2014

NOTE: "FAIR" INDICATES FEW OR NO CLOUDS BELOW 12,000 FEET WITH NO
SIGNIFICANT WEATHER AND/OR OBSTRUCTIONS TO VISIBILITY.

WIZ001-002-006>008-014>016-023>028-312100-
NORTHWEST WISCONSIN

CITY           SKY/WX    TMP DP  RH WIND       PRES   REMARKS
SUPERIOR ARPT  MOSUNNY   80  58  47 N7        29.96S HX  80
ASHLAND        NOT AVBL
HAYWARD        NOT AVBL
SIREN          PTSUNNY   72  62  70 SE3       30.00R
RICE LAKE      MOSUNNY   77  60  54 W7        30.01S
LADYSMITH      MOSUNNY   78  62  57 W9        30.00F HX  80
EAU CLAIRE     NOT AVBL
MENOMONIE      CLEAR     81  53  38 W10G17    30.01F HX  80
NEW RICHMOND   MOSUNNY   80  54  40 SW10      30.01F HX  80
OSCEOLA        PTSUNNY   79  59  50 W8        30.03S HX  80
$$

WIZ003>005-009-010-017-018-312100-
NORTH CENTRAL WISCONSIN

CITY           SKY/WX    TMP DP  RH WIND       PRES   REMARKS
WOODRUFF       MOSUNNY   80  49  34 W7        30.00R
RHINELANDER    NOT AVBL
EAGLE RIVER    MOSUNNY   75  46  34 NW9G16    29.99S
LAND O LAKES   MOSUNNY   75  44  33 NW7G17    30.01R
PHILLIPS       PTSUNNY   75  55  50 NW8       29.99S
TOMAHAWK       MOSUNNY   76  54  46 NW6       30.00S
MEDFORD        MOSUNNY   73  60  64 W8        30.00S
MERRILL        MOSUNNY   77  58  51 NW6       29.98S
$$

WIZ029-030-035-036-043>047-312100-
CENTRAL WISCONSIN

CITY           SKY/WX    TMP DP  RH WIND       PRES   REMARKS
WAUSAU         NOT AVBL
MOSINEE        NOT AVBL
MARSHFIELD     NOT AVBL
STEVENS POINT  PTSUNNY   76  57  51 W10G16    29.99S
WAUPACA        CLOUDY    84  56  38 W12G20    29.97F HX  83
WAUTOMA        NOT AVBL
WISC RAPIDS    NOT AVBL
CAMP DOUGLAS   NOT AVBL
$$

WIZ011>013-019>022-031-037>040-048>050-312100-
NORTHEAST WISCONSIN

CITY           SKY/WX    TMP DP  RH WIND       PRES   REMARKS
ANTIGO         MOSUNNY   76  50  40 NW10G16   29.99S
STURGEON BAY   MOSUNNY   77  54  44 W13       29.96F
GREEN BAY      NOT AVBL
MANITOWOC      NOT AVBL
APPLETON       PTSUNNY   72  59  64 W10       29.98S
CLINTONVILLE   MOSUNNY   79  52  38 N8        29.95F
OSHKOSH        NOT AVBL
$$

WIZ032>034-041-042-053>061-312100-
SOUTHWEST WISCONSIN

CITY           SKY/WX    TMP DP  RH WIND       PRES   REMARKS
LA CROSSE      NOT AVBL
SPARTA         MOSUNNY   79  56  46 W10       30.03S
VIROQUA        FAIR      78  56  47 W10       30.05S
BOSCOBEL       NOT AVBL
PRAIRIE DU CHI MOSUNNY   81  52  36 W8        30.03S HX  80
PLATTEVILLE    FAIR      79  56  45 W12       30.06S HX  80
$$

WIZ056-057-062-063-064-067-068-312100-
SOUTH CENTRAL WISCONSIN

CITY           SKY/WX    TMP DP  RH WIND       PRES   REMARKS
BARABOO/DELLS  SUNNY     82  52  36 W12       30.01F HX  81
LONE ROCK      NOT AVBL
WATERTOWN      MOSUNNY   80  58  47 W12G18    30.00F HX  80
MADISON        NOT AVBL
MIDDLETON      FAIR      82  52  35 W10G17    30.02F HX  81
MONROE         MOSUNNY   79  54  41 W16       30.04F
JANESVILLE     MOSUNNY   82  52  34 NW15      30.01F HX  81
$$

WIZ051-052-058>065-066-070>072-312100-
SOUTHEAST WISCONSIN

CITY           SKY/WX    TMP DP  RH WIND       PRES   REMARKS
MILWAUKEE      NOT AVBL
WAUKESHA       MOSUNNY   79  54  41 W9G17     30.01F
MILWAUKEE/TIMM MOSUNNY   81  52  36 NW12G18   30.00F HX  80
RACINE         NOT AVBL
BURLINGTON     MOSUNNY   79  56  44 W12G17    30.01F HX  80
KENOSHA        NOT AVBL
FOND DU LAC    PTSUNNY   78  59  51 E5        29.98F
SHEBOYGAN      NOT AVBL
WEST BEND      MOSUNNY   79  55  44 W12       30.00S
JUNEAU         MOSUNNY   79  52  38 W10G16    30.01F
$$

LSZ147-162-312100-
LAKE SUPERIOR

STATION/POSITION TIME  TEMP    WIND        PRES    WAVE
                       AIR SEA DIR/SP/G            HT/PER
                 (UTC) (F)     (DEG/KT/KT) (MB)    (FT/S)
W MID LAKE BUOY  1850   52 44  230/  6/  8 1014.4F   0
PORT WING        1900   76     250/  7/ 10 1014.6F
SAXON HARBOR     1900             CALM     1014.9S
$$

LMZ867-665-643>646-312100-
LAKE MICHIGAN

STATION/POSITION TIME  TEMP    WIND        PRES    WAVE
                       AIR SEA DIR/SP/G            HT/PER
                 (UTC) (F)     (DEG/KT/KT) (MB)    (FT/S)
N MID LAKE BUOY  1850   58 55  200/ 12/ 14 1013.7F   1/ 2
NORTHPORT PIER   1900   70     140/  8/ 11 1013.9S
SISTER BAY       1840   73     270/  7/  7   N/A
KEWAUNEE LAKESHO 1900   59     170/  8/ 10 1014.4S
SHEBOYGAN LAKESH 1900   66     170/ 14/ 14 1015.4F
PORT WASHINGTON  1900   67     140/  6/ 12 1016.3
ATWATER BUOY     1900   72      90/  6     1016.7F
MILWAUKEE LAKESH 1900   78     260/ 12/ 14   N/A
S MID LAKE BUOY  1850   65 64  160/  4/  4 1016.9S   1
KENOSHA   LAKESH 1900   79     280/ 13/ 16 1015.6F
$$

TC  - TEMPERATURE IN CELSIUS
VSB - VISIBILITY IN STATUTE MILES
WCI - WIND CHILL INDEX
HX  - HEAT INDEX




USA.gov is the U.S. government's official web portal to all federal, state and local government web resources and services.